When you browse on this site, cookies collect data to enhance your experience and personalize the content and advertising you see.
Visit our Privacy Policy to learn more. By continuing to use the site, you agree to this use of cookies and data.
  • In Sweden
  • List of Countries
  • For 7 days
  • Water Temperature
  • Weather Map
  • Weather Widgets
  • user-avatar
    Login

    Hourly Weather Brunoy

    Today, 21 August, Wednesday

    Time Temperature Precipitation Wind Pressure Humidity
    00:00 +16°C° 0 mm 2 mps 764 mmHg 68%
    01:00 +15°C° 0 mm 2 mps 764 mmHg 69%
    02:00 +15°C° 0 mm 2 mps 763 mmHg 70%
    03:00 +14°C° 0 mm 2 mps 763 mmHg 71%
    04:00 +14°C° 0 mm 1 mps 763 mmHg 70%
    05:00 +15°C° 0 mm 1 mps 764 mmHg 69%
    06:00 +15°C° 0 mm 1 mps 764 mmHg 69%
    07:00 +18°C° 0 mm 1 mps 764 mmHg 62%
    08:00 +19°C° 0 mm 2 mps 764 mmHg 55%
    09:00 +21°C° 0 mm 2 mps 764 mmHg 48%
    10:00 +23°C° 0 mm 2 mps 764 mmHg 45%
    11:00 +24°C° 0 mm 2 mps 763 mmHg 42%
    12:00 +25°C° 0 mm 2 mps 763 mmHg 39%
    13:00 +25°C° 0 mm 2 mps 763 mmHg 37%
    14:00 +26°C° 0 mm 2 mps 762 mmHg 36%
    15:00 +26°C° 0 mm 2 mps 762 mmHg 34%
    16:00 +25°C° 0 mm 2 mps 762 mmHg 38%
    17:00 +24°C° 0 mm 2 mps 762 mmHg 41%
    18:00 +24°C° 0 mm 2 mps 762 mmHg 45%
    19:00 +21°C° 0 mm 2 mps 762 mmHg 48%
    20:00 +20°C° 0 mm 2 mps 762 mmHg 51%
    21:00 +19°C° 0 mm 2 mps 762 mmHg 54%
    22:00 +18°C° 0 mm 2 mps 762 mmHg 56%
    23:00 +18°C° 0 mm 2 mps 762 mmHg 57%

    Tomorrow, 22 August, Thursday

    Time Temperature Precipitation Wind Pressure Humidity
    00:00 +18°C° 0 mm 1 mps 762 mmHg 59%
    01:00 +18°C° 0 mm 1 mps 762 mmHg 59%
    02:00 +16°C° 0 mm 1 mps 762 mmHg 60%
    03:00 +16°C° 0 mm 1 mps 761 mmHg 60%
    04:00 +16°C° 0 mm 1 mps 762 mmHg 60%
    05:00 +16°C° 0 mm 1 mps 762 mmHg 60%
    06:00 +16°C° 0 mm 1 mps 762 mmHg 60%
    07:00 +18°C° 0 mm 2 mps 762 mmHg 54%
    08:00 +20°C° 0 mm 2 mps 762 mmHg 48%
    09:00 +24°C° 0 mm 2 mps 763 mmHg 42%
    10:00 +25°C° 0 mm 2 mps 762 mmHg 38%
    11:00 +26°C° 0 mm 2 mps 762 mmHg 35%
    12:00 +27°C° 0 mm 2 mps 762 mmHg 32%
    13:00 +28°C° 0 mm 2 mps 762 mmHg 31%
    14:00 +28°C° 0 mm 2 mps 761 mmHg 30%
    15:00 +28°C° 0 mm 2 mps 761 mmHg 29%
    16:00 +27°C° 0 mm 3 mps 761 mmHg 33%
    17:00 +26°C° 0 mm 3 mps 761 mmHg 37%
    18:00 +25°C° 0 mm 3 mps 761 mmHg 41%
    19:00 +24°C° 0 mm 3 mps 761 mmHg 44%
    20:00 +21°C° 0 mm 2 mps 761 mmHg 46%
    21:00 +20°C° 0 mm 2 mps 762 mmHg 49%
    22:00 +19°C° 0 mm 2 mps 762 mmHg 51%
    23:00 +19°C° 0 mm 2 mps 761 mmHg 54%

    Day after tomorrow, 23 August, Friday

    Time Temperature Precipitation Wind Pressure Humidity
    00:00 +18°C° 0 mm 2 mps 761 mmHg 56%
    01:00 +18°C° 0 mm 2 mps 761 mmHg 58%
    02:00 +17°C° 0 mm 2 mps 761 mmHg 61%
    03:00 +17°C° 0 mm 2 mps 761 mmHg 63%
    04:00 +17°C° 0 mm 2 mps 761 mmHg 63%
    05:00 +17°C° 0 mm 2 mps 761 mmHg 64%
    06:00 +17°C° 0 mm 2 mps 761 mmHg 65%
    07:00 +19°C° 0 mm 2 mps 761 mmHg 60%
    08:00 +21°C° 0 mm 2 mps 761 mmHg 54%
    09:00 +24°C° 0 mm 2 mps 761 mmHg 49%
    10:00 +25°C° 0 mm 2 mps 760 mmHg 46%
    11:00 +27°C° 0 mm 2 mps 760 mmHg 43%
    12:00 +28°C° 0 mm 3 mps 760 mmHg 39%
    13:00 +29°C° 0 mm 3 mps 760 mmHg 37%
    14:00 +29°C° 0 mm 3 mps 759 mmHg 36%
    15:00 +30°C° 0 mm 3 mps 759 mmHg 34%
    16:00 +29°C° 0 mm 3 mps 759 mmHg 38%
    17:00 +27°C° 0 mm 3 mps 758 mmHg 42%
    18:00 +26°C° 0 mm 3 mps 758 mmHg 47%
    19:00 +25°C° 0 mm 3 mps 758 mmHg 50%
    20:00 +24°C° 0 mm 3 mps 759 mmHg 54%
    21:00 +21°C° 0 mm 2 mps 759 mmHg 58%
    22:00 +21°C° 0 mm 2 mps 758 mmHg 61%
    23:00 +20°C° 0 mm 2 mps 758 mmHg 64%

    24 August, Saturday

    Time Temperature Precipitation Wind Pressure Humidity
    00:00 +20°C° 0 mm 2 mps 758 mmHg 68%
    01:00 +19°C° 0 mm 2 mps 758 mmHg 70%
    02:00 +19°C° 0 mm 2 mps 757 mmHg 72%
    03:00 +18°C° 0 mm 2 mps 757 mmHg 74%
    04:00 +18°C° 0 mm 2 mps 757 mmHg 74%
    05:00 +18°C° 0 mm 2 mps 757 mmHg 75%
    06:00 +19°C° 0 mm 2 mps 757 mmHg 75%
    07:00 +21°C° 0 mm 2 mps 757 mmHg 68%
    08:00 +24°C° 0 mm 2 mps 757 mmHg 60%
    09:00 +26°C° 0 mm 2 mps 757 mmHg 52%
    10:00 +28°C° 0 mm 2 mps 757 mmHg 46%
    11:00 +29°C° 0 mm 2 mps 756 mmHg 41%
    12:00 +31°C° 0 mm 2 mps 756 mmHg 35%
    13:00 +31°C° 0 mm 1 mps 756 mmHg 33%
    14:00 +32°C° 0 mm 1 mps 755 mmHg 30%
    15:00 +33°C° 0 mm 1 mps 755 mmHg 27%
    16:00 +32°C° 0 mm 1 mps 755 mmHg 30%
    17:00 +30°C° 0 mm 1 mps 755 mmHg 33%
    18:00 +29°C° 0 mm 2 mps 754 mmHg 36%
    19:00 +28°C° 0 mm 2 mps 755 mmHg 40%
    20:00 +26°C° 0 mm 2 mps 755 mmHg 44%
    21:00 +25°C° 0 mm 2 mps 755 mmHg 48%
    22:00 +24°C° 0 mm 2 mps 755 mmHg 51%
    23:00 +24°C° 0 mm 2 mps 755 mmHg 55%

    25 August, Sunday

    Time Temperature Precipitation Wind Pressure Humidity
    00:00 +23°C° 0 mm 2 mps 755 mmHg 58%
    01:00 +23°C° 0 mm 2 mps 754 mmHg 62%
    02:00 +21°C° 0 mm 2 mps 754 mmHg 65%
    03:00 +21°C° 0 mm 1 mps 754 mmHg 69%
    04:00 +21°C° 0 mm 1 mps 754 mmHg 68%
    05:00 +21°C° 0 mm 1 mps 754 mmHg 67%
    06:00 +21°C° 0 mm 1 mps 754 mmHg 67%
    07:00 +24°C° 0 mm 1 mps 754 mmHg 58%
    08:00 +26°C° 0 mm 2 mps 755 mmHg 50%
    09:00 +28°C° 0 mm 2 mps 755 mmHg 41%
    10:00 +30°C° 0 mm 2 mps 755 mmHg 37%
    11:00 +32°C° 0 mm 2 mps 754 mmHg 32%
    12:00 +35°C° 0 mm 2 mps 754 mmHg 28%
    13:00 +34°C° 0 mm 1 mps 754 mmHg 26%
    14:00 +35°C° 0 mm 1 mps 754 mmHg 24%
    15:00 +34°C° 0 mm 0 mps 753 mmHg 22%
    16:00 +34°C° 0 mm 1 mps 753 mmHg 25%
    17:00 +33°C° 0 mm 1 mps 753 mmHg 28%
    18:00 +31°C° 0 mm 2 mps 753 mmHg 31%
    19:00 +30°C° 0 mm 2 mps 753 mmHg 33%
    20:00 +29°C° 0 mm 2 mps 754 mmHg 36%
    21:00 +27°C° 0 mm 2 mps 754 mmHg 39%
    22:00 +26°C° 0 mm 2 mps 754 mmHg 41%
    23:00 +26°C° 0 mm 1 mps 754 mmHg 43%

    26 August, Monday

    Time Temperature Precipitation Wind Pressure Humidity
    00:00 +25°C° 0 mm 1 mps 754 mmHg 46%
    01:00 +24°C° 0 mm 1 mps 754 mmHg 48%
    02:00 +23°C° 0 mm 1 mps 754 mmHg 50%
    03:00 +23°C° 0 mm 2 mps 754 mmHg 53%
    04:00 +21°C° 0 mm 2 mps 754 mmHg 56%
    05:00 +21°C° 0 mm 2 mps 754 mmHg 60%
    06:00 +21°C° 0 mm 3 mps 755 mmHg 63%
    07:00 +22°C° 0 mm 3 mps 755 mmHg 59%
    08:00 +24°C° 0 mm 3 mps 756 mmHg 54%
    09:00 +25°C° 0 mm 3 mps 756 mmHg 50%
    10:00 +26°C° 0 mm 3 mps 756 mmHg 47%
    11:00 +27°C° 0 mm 3 mps 757 mmHg 44%
    12:00 +28°C° 0 mm 3 mps 757 mmHg 42%
    13:00 +28°C° 0 mm 3 mps 757 mmHg 42%
    14:00 +29°C° 0 mm 3 mps 757 mmHg 42%
    15:00 +29°C° 0 mm 3 mps 757 mmHg 42%
    16:00 +28°C° 0 mm 3 mps 757 mmHg 44%
    17:00 +27°C° 0 mm 3 mps 758 mmHg 46%
    18:00 +26°C° 0 mm 3 mps 758 mmHg 49%
    19:00 +24°C° 0 mm 3 mps 758 mmHg 52%
    20:00 +22°C° 0 mm 3 mps 759 mmHg 56%
    21:00 +20°C° 0 mm 3 mps 760 mmHg 59%
    22:00 +20°C° 0 mm 2 mps 760 mmHg 60%
    23:00 +19°C° 0 mm 2 mps 760 mmHg 62%
    Show more